Preview of NWS' New Version of Forecast
This preview is not operational and should not be used for support decisions.

Regional Weather Roundup (RWR)

Issued by National Weather Service (NWS)

                            
000
ASPQ40 PGUM 190710
RWRPQ 
WEATHER ROUNDUP FOR THE MARIANAS AND MICRONESIA
NATIONAL WEATHER SERVICE TIYAN GU
500 PM CHST FRI APR 19 2019

GUZ001>004-190800-
MARIANA ISLANDS-
  
CITY           SKY/WX    TMP DP  RH WIND       PRES   REMARKS
GUAM AIRPORT   CLOUDY    84  72  65 NE15      29.84R                  
ANDERSEN AFB   PTSUNNY   82  72  69 NE14      29.85S                  
ROTA AIRPORT   MOSUNNY   82  70  65 NE10      29.83S                  
TINIAN AP      MOSUNNY   88  72  58 E14       29.82S HX  94           
SAIPAN AP      LGT RAIN  82  73  74 E16       29.84S                  

$$

PMZ161-190800-
REPUBLIC OF PALAU-
  
CITY           SKY/WX    TMP DP  RH WIND       PRES   REMARKS
KOROR AP       LGT RAIN  79  77  94 E7        29.76S                  
KOROR WSO      NOT AVBL                                               

$$

PMZ171>174-190800-
FEDERATED STATES OF MICRONESIA-
  
CITY           SKY/WX    TMP DP  RH WIND       PRES   REMARKS
YAP AIRPORT    PTSUNNY   86  75  70 VRB6      29.78F HX  95           
CHUUK AP       PTSUNNY   86  77  74 NE8       29.76S HX  97           
POHNPEI AP     NOT AVBL                                               
POHNPEI WSO    CLOUDY    81  75  83 SE5       29.79R                  
KOSRAE AP      NOT AVBL                                               

$$

PMZ181-190800-
REPUBLIC OF THE MARSHALL ISLANDS-
  
CITY           SKY/WX    TMP DP  RH WIND       PRES   REMARKS
KWAJALEIN AP   PTCLDY    82  72  69 E14       29.81R                  
MAJURO AP      MOCLDY    84  77  79 NE21      29.80R HX  94           
MAJURO WSO     MOCLDY    82  75  78 E9        29.79R                  

$$